Regional Weather Roundup
Issued by NWS

Home | Current Version | Previous Version | Graphics & Text | Print | Product List | Glossary On
Versions: 1 2 3 4 5 6 7 8 9 10 11 12 13 14 15 16 17 18 19 20 21 22 23 24 25 26 27 28 29 30 31 32 33 34 35 36 37 38 39 40 41 42 43 44 45 46 47 48 49 50
000
ASUS45 KSLC 052010
RWRUT

UTAH REGIONAL WEATHER ROUNDUP
NATIONAL WEATHER SERVICE SALT LAKE CITY UT
100 PM MST FRI FEB 05 2016

UTZ001>011-023>025-052100-

NORTHERN UTAH

CITY           SKY/WX    TMP DP  RH WIND       PRES   REMARKS
BRIGHAM CITY   CLOUDY    32  25  77 CALM      30.56F
HILL AFB       PTSUNNY   33  21  61 SW3       30.53F
LOGAN          CLOUDY    28  25  88 W3        30.55S
OGDEN          CLOUDY    33  27  78 NW5       30.54F WCI  29
PROVO AIRPORT  PTSUNNY   27  19  74 CALM      30.57F
SALT LAKE CITY PTSUNNY   34  24  67 SE7       30.55F WCI  28
VERNAL         SUNNY     19  10  68 CALM      30.53F
WENDOVER       MOSUNNY   34  25  69 CALM      30.55F
HEBER CITY     PTSUNNY   28  21  74 CALM      30.51S
WEST JORDAN    CLOUDY    30  27  86 S9        30.56S WCI  22

$$

UTZ012>022-026-027-052100-

SOUTHERN/CENTRAL UTAH

CITY           SKY/WX    TMP DP  RH WIND       PRES   REMARKS
BLANDING       SUNNY     29  20  67 S6        30.53F WCI  23
BRYCE CANYON   SUNNY     27  15  61 MISG      30.46F
CEDAR CITY     SUNNY     30  20  66 E3        30.50F
DELTA          SUNNY     23  22  96 CALM      30.56F
HANKSVILLE     CLOUDY    21  18  86 W5        30.62F WCI  15
MILFORD        SUNNY     17  12  80 SW5       30.55F WCI  10
MOAB/CYNLANDS  CLOUDY    19  15  84 SE6       30.57F WCI  11
PRICE          SUNNY     18  12  77 E8        30.48F WCI   8
ST GEORGE      CLEAR     48  25  40 NW5       30.52F
KANAB          SUNNY     45  21  39 E14       30.50F

$$

REGIONAL REPORTS     COLORADO/ARIZONA

CITY           SKY/WX    TMP DP  RH WIND       PRES   REMARKS
CRAIG, CO      MOSUNNY   21  15  78 E3        30.46F
GRAND JUNCTION SUNNY     22  15  75 E5        30.55F WCI  16
RIFLE          SUNNY     21  12  68 SE3       30.51F
MONTROSE       SUNNY     23  12  62 N3        30.52F
CORTEZ         SUNNY     33  17  51 W10       30.42F WCI  25
PAGE, AZ       SUNNY     38  23  55 E3        30.51F
GRAND CANYON   SUNNY     34  13  41 NE17G29   30.45F WCI  23
KINGMAN        SUNNY     52  20  28 N14       30.43F
FLAGSTAFF      SUNNY     30  13  49 NE17G32   30.41F WCI  18

$$

REGIONAL REPORTS    NEVADA/IDAHO/WYOMING

CITY           SKY/WX    TMP DP  RH WIND       PRES   REMARKS
LAS VEGAS, NV  MOSUNNY   55  21  26 N12       30.45F
ELY            SUNNY     23  15  71 E3        30.51F
ELKO           SUNNY     24  17  74 SW3       30.54F
POCATELLO, ID  CLOUDY    22  19  89 NE7       30.55S WCI  13
BURLEY         CLOUDY    32  26  78 NE7       30.51S WCI  26
EVANSTON, WY   CLOUDY    26  18  71 SW13      30.44F WCI  15
ROCK SPRINGS   CLOUDY    25  16  68 W31G37    30.36F WCI   8

$$



USA.gov is the U.S. government's official web portal to all federal, state and local government web resources and services.